Location: Alphen aan den Rijn
(52.1277°N, 4.6689°E)
Time: 08:26:53
(UTC+01:00)

ISS - Pass Details

Date: 30 October 2021
Orbit: 417 x 423 km, 51.6° (Epoch: 01 December)

Event Time Altitude Azimuth Distance (km) Brightness Sun altitude
Exits shadow 07:05:54 27° 262° (W) 854 -2.8 -13.8°
Maximum altitude 07:07:38 83° 175° (S) 428 -3.8 -13.5°
Drops below altitude 10° 07:11:00 10° 89° (E) 1,502 0.5 -13.0°
Sets 07:13:06 0° 88° (E) 2,365 2.0 -12.7°
